Simultaneous Nadir Overpasses (SNOs) Predictions

Prediction of SNOs between METOP-B and TERRA Satellite Orbit:

Table of predicted SNOs for the next 14.0 days since TLE Epoch: 1/26/2019
Index Date (METOP-B) Time (METOP-B) Lat,Lon (METOP-B) SZA (METOP-B ) Date (TERRA) Time (TERRA) Lat,Lon (TERRA) SZA (TERRA ) Distance(km) Time Diff (sec)
1 01/27/2019 01:31:21 81.28,-156.17 102.12 01/27/2019 01:31:52 81.27,-156.17 102.13 0.63 31
2 01/27/2019 02:22:01 -81.29, 11.64 77.84 01/27/2019 02:21:18 -81.29, 11.72 77.85 1.39 43
3 01/29/2019 21:05:45 81.28, -89.60 101.39 01/29/2019 21:06:06 81.28, -89.65 101.39 1.04 21
4 01/29/2019 21:56:25 -81.29, 78.24 78.57 01/29/2019 21:55:32 -81.29, 78.27 78.59 0.77 53
5 02/01/2019 16:40:09 81.28, -23.03 100.62 02/01/2019 16:40:20 81.28, -23.20 100.60 2.84 11
6 02/01/2019 17:30:49 -81.29, 144.82 79.34 02/01/2019 17:29:46 -81.30, 144.75 79.37 1.27 63
7 02/04/2019 11:23:54 -81.27,-124.68 80.29 02/04/2019 11:25:07 -81.27,-124.49 80.24 3.26 73
8 02/04/2019 12:14:33 81.28, 43.13 99.76 02/04/2019 12:14:33 81.28, 43.20 99.77 1.25 0
9 02/04/2019 13:05:13 -81.29,-149.00 80.19 02/04/2019 13:03:59 -81.30,-148.82 80.20 3.11 74
10 02/07/2019 06:58:18 -81.28, -58.12 81.13 02/07/2019 06:59:21 -81.27, -58.12 81.11 0.73 63




NCC Satellite Simultaneous Nadir Overpasses (SNOs) Prediction Service
